Year,Month,Day,Hour,Minute,Value (Times are PST for temperature in C)
2018,10,21,00,00,7.00
2018,10,21,00,01,7.00
2018,10,21,00,02,7.00
2018,10,21,00,03,7.00
2018,10,21,00,04,6.90
2018,10,21,00,05,6.90
2018,10,21,00,06,6.90
2018,10,21,00,07,6.90
2018,10,21,00,08,6.90
2018,10,21,00,09,6.90
2018,10,21,00,10,6.90
2018,10,21,00,11,6.90
2018,10,21,00,12,6.90
2018,10,21,00,13,6.90
2018,10,21,00,14,6.90
2018,10,21,00,15,6.90
2018,10,21,00,16,6.90
2018,10,21,00,17,7.00
2018,10,21,00,18,7.00
2018,10,21,00,19,7.00
2018,10,21,00,20,7.00
2018,10,21,00,21,7.00
2018,10,21,00,22,7.00
2018,10,21,00,23,7.00
2018,10,21,00,24,6.90
2018,10,21,00,25,6.90
2018,10,21,00,26,6.90
2018,10,21,00,27,6.80
2018,10,21,00,28,6.80
2018,10,21,00,29,6.80
2018,10,21,00,30,6.70
2018,10,21,00,31,6.70
2018,10,21,00,32,6.70
2018,10,21,00,33,6.70
2018,10,21,00,34,6.60
2018,10,21,00,35,6.60
2018,10,21,00,36,6.60
2018,10,21,00,37,6.50
2018,10,21,00,38,6.50
2018,10,21,00,39,6.50
2018,10,21,00,40,6.50
2018,10,21,00,41,6.40
2018,10,21,00,42,6.40
2018,10,21,00,43,6.40
2018,10,21,00,44,6.50
2018,10,21,00,45,6.50
2018,10,21,00,46,6.50
2018,10,21,00,47,6.50
2018,10,21,00,48,6.60
2018,10,21,00,49,6.60
2018,10,21,00,50,6.50
2018,10,21,00,51,6.50
2018,10,21,00,52,6.50
2018,10,21,00,53,6.40
2018,10,21,00,54,6.40
2018,10,21,00,55,6.40
2018,10,21,00,56,6.40
2018,10,21,00,57,6.30
2018,10,21,00,58,6.30
2018,10,21,00,59,6.30
2018,10,21,01,00,6.30
2018,10,21,01,01,6.30
2018,10,21,01,02,6.20
2018,10,21,01,03,6.20
2018,10,21,01,04,6.20
2018,10,21,01,05,6.20
2018,10,21,01,06,6.20
2018,10,21,01,07,6.20
2018,10,21,01,08,6.30
2018,10,21,01,09,6.30
2018,10,21,01,10,6.20
2018,10,21,01,11,6.20
2018,10,21,01,12,6.20
2018,10,21,01,13,6.20
2018,10,21,01,14,6.20
2018,10,21,01,15,6.20
2018,10,21,01,16,6.20
2018,10,21,01,17,6.20
2018,10,21,01,18,6.20
2018,10,21,01,19,6.20
2018,10,21,01,20,6.20
2018,10,21,01,21,6.30
2018,10,21,01,22,6.30
2018,10,21,01,23,6.30
2018,10,21,01,24,6.30
2018,10,21,01,25,6.30
2018,10,21,01,26,6.30
2018,10,21,01,27,6.30
2018,10,21,01,28,6.30
2018,10,21,01,29,6.30
2018,10,21,01,30,6.30
2018,10,21,01,31,6.30
2018,10,21,01,32,6.20
2018,10,21,01,33,6.20
2018,10,21,01,34,6.20
2018,10,21,01,35,6.20
2018,10,21,01,36,6.20
2018,10,21,01,37,6.10
2018,10,21,01,38,6.10
2018,10,21,01,39,6.10
2018,10,21,01,40,6.10
2018,10,21,01,41,6.00
2018,10,21,01,42,6.00
2018,10,21,01,43,6.10
2018,10,21,01,44,6.10
2018,10,21,01,45,6.10
2018,10,21,01,46,6.10
2018,10,21,01,47,6.10
2018,10,21,01,48,6.10
2018,10,21,01,49,6.10
2018,10,21,01,50,6.10
2018,10,21,01,51,6.00
2018,10,21,01,52,6.00
2018,10,21,01,53,6.00
2018,10,21,01,54,6.00
2018,10,21,01,55,5.90
2018,10,21,01,56,5.90
2018,10,21,01,57,5.90
2018,10,21,01,58,5.90
2018,10,21,01,59,5.90
2018,10,21,02,00,5.80
2018,10,21,02,01,5.80
2018,10,21,02,02,5.80
2018,10,21,02,03,5.80
2018,10,21,02,04,5.80
2018,10,21,02,05,5.80
2018,10,21,02,06,5.80
2018,10,21,02,07,5.70
2018,10,21,02,08,5.70
2018,10,21,02,09,5.70
2018,10,21,02,10,5.70
2018,10,21,02,11,5.70
2018,10,21,02,12,5.70
2018,10,21,02,13,5.60
2018,10,21,02,14,5.60
2018,10,21,02,15,5.60
2018,10,21,02,16,5.60
2018,10,21,02,17,5.60
2018,10,21,02,18,5.60
2018,10,21,02,19,5.60
2018,10,21,02,20,5.60
2018,10,21,02,21,5.60
2018,10,21,02,22,5.60
2018,10,21,02,23,5.60
2018,10,21,02,24,5.60
2018,10,21,02,25,5.50
2018,10,21,02,26,5.50
2018,10,21,02,27,5.50
2018,10,21,02,28,5.50
2018,10,21,02,29,5.40
2018,10,21,02,30,5.40
2018,10,21,02,31,5.40
2018,10,21,02,32,5.40
2018,10,21,02,33,5.40
2018,10,21,02,34,5.40
2018,10,21,02,35,5.30
2018,10,21,02,36,5.30
2018,10,21,02,37,5.30
2018,10,21,02,38,5.30
2018,10,21,02,39,5.30
2018,10,21,02,40,5.30
2018,10,21,02,41,5.30
2018,10,21,02,42,5.30
2018,10,21,02,43,5.30
2018,10,21,02,44,5.30
2018,10,21,02,45,5.40
2018,10,21,02,46,5.40
2018,10,21,02,47,5.40
2018,10,21,02,48,5.40
2018,10,21,02,49,5.40
2018,10,21,02,50,5.40
2018,10,21,02,51,5.40
2018,10,21,02,52,5.40
2018,10,21,02,53,5.40
2018,10,21,02,54,5.40
2018,10,21,02,55,5.40
2018,10,21,02,56,5.40
2018,10,21,02,57,5.40
2018,10,21,02,58,5.40
2018,10,21,02,59,5.30
2018,10,21,03,00,5.30
2018,10,21,03,01,5.30
2018,10,21,03,02,5.30
2018,10,21,03,03,5.30
2018,10,21,03,04,5.20
2018,10,21,03,05,5.20
2018,10,21,03,06,5.20
2018,10,21,03,07,5.20
2018,10,21,03,08,5.20
2018,10,21,03,09,5.20
2018,10,21,03,10,5.20
2018,10,21,03,11,5.20
2018,10,21,03,12,5.20
2018,10,21,03,13,5.20
2018,10,21,03,14,5.20
2018,10,21,03,15,5.30
2018,10,21,03,16,5.30
2018,10,21,03,17,5.20
2018,10,21,03,18,5.20
2018,10,21,03,19,5.20
2018,10,21,03,20,5.20
2018,10,21,03,21,5.20
2018,10,21,03,22,5.20
2018,10,21,03,23,5.20
2018,10,21,03,24,5.20
2018,10,21,03,25,5.20
2018,10,21,03,26,5.20
2018,10,21,03,27,5.30
2018,10,21,03,28,5.30
2018,10,21,03,29,5.30
2018,10,21,03,30,5.30
2018,10,21,03,31,5.30
2018,10,21,03,32,5.30
2018,10,21,03,33,5.30
2018,10,21,03,34,5.30
2018,10,21,03,35,5.30
2018,10,21,03,36,5.30
2018,10,21,03,37,5.30
2018,10,21,03,38,5.20
2018,10,21,03,39,5.20
2018,10,21,03,40,5.20
2018,10,21,03,41,5.20
2018,10,21,03,42,5.10
2018,10,21,03,43,5.10
2018,10,21,03,44,5.10
2018,10,21,03,45,5.00
2018,10,21,03,46,5.00
2018,10,21,03,47,5.00
2018,10,21,03,48,5.00
2018,10,21,03,49,5.00
2018,10,21,03,50,5.00
2018,10,21,03,51,5.10
2018,10,21,03,52,5.10
2018,10,21,03,53,5.10
2018,10,21,03,54,5.10
2018,10,21,03,55,5.10
2018,10,21,03,56,5.10
2018,10,21,03,57,5.10
2018,10,21,03,58,5.20
2018,10,21,03,59,5.20
2018,10,21,04,00,5.20
2018,10,21,04,01,5.10
2018,10,21,04,02,5.10
2018,10,21,04,03,5.10
2018,10,21,04,04,5.10
2018,10,21,04,05,5.10
2018,10,21,04,06,5.10
2018,10,21,04,07,5.10
2018,10,21,04,08,5.10
2018,10,21,04,09,5.00
2018,10,21,04,10,5.00
2018,10,21,04,11,5.00
2018,10,21,04,12,5.00
2018,10,21,04,13,5.00
2018,10,21,04,14,5.00
2018,10,21,04,15,5.00
2018,10,21,04,16,5.00
2018,10,21,04,17,5.00
2018,10,21,04,18,5.00
2018,10,21,04,19,5.00
2018,10,21,04,20,5.00
2018,10,21,04,21,5.00
2018,10,21,04,22,5.00
2018,10,21,04,23,5.00
2018,10,21,04,24,5.00
2018,10,21,04,25,5.00
2018,10,21,04,26,5.00
2018,10,21,04,27,4.90
2018,10,21,04,28,4.90
2018,10,21,04,29,4.90
2018,10,21,04,30,4.90
2018,10,21,04,31,4.90
2018,10,21,04,32,4.90
2018,10,21,04,33,4.80
2018,10,21,04,34,4.80
2018,10,21,04,35,4.80
2018,10,21,04,36,4.80
2018,10,21,04,37,4.80
2018,10,21,04,38,4.70
2018,10,21,04,39,4.70
2018,10,21,04,40,4.70
2018,10,21,04,41,4.70
2018,10,21,04,42,4.70
2018,10,21,04,43,4.70
2018,10,21,04,44,4.60
2018,10,21,04,45,4.60
2018,10,21,04,46,4.60
2018,10,21,04,47,4.60
2018,10,21,04,48,4.60
2018,10,21,04,49,4.50
2018,10,21,04,50,4.50
2018,10,21,04,51,4.50
2018,10,21,04,52,4.50
2018,10,21,04,53,4.50
2018,10,21,04,54,4.50
2018,10,21,04,55,4.40
2018,10,21,04,56,4.50
2018,10,21,04,57,4.50
2018,10,21,04,58,4.50
2018,10,21,04,59,4.60
2018,10,21,05,00,4.60
2018,10,21,05,01,4.70
2018,10,21,05,02,4.80
2018,10,21,05,03,4.80
2018,10,21,05,04,4.80
2018,10,21,05,05,4.90
2018,10,21,05,06,4.90
2018,10,21,05,07,4.90
2018,10,21,05,08,4.90
2018,10,21,05,09,4.90
2018,10,21,05,10,5.00
2018,10,21,05,11,4.90
2018,10,21,05,12,5.00
2018,10,21,05,13,5.00
2018,10,21,05,14,5.00
2018,10,21,05,15,4.90
2018,10,21,05,16,4.90
2018,10,21,05,17,4.90
2018,10,21,05,18,4.90
2018,10,21,05,19,4.90
2018,10,21,05,20,4.90
2018,10,21,05,21,4.90
2018,10,21,05,22,4.90
2018,10,21,05,23,4.90
2018,10,21,05,24,5.00
2018,10,21,05,25,5.00
2018,10,21,05,26,5.00
2018,10,21,05,27,4.90
2018,10,21,05,28,4.90
2018,10,21,05,29,4.90
2018,10,21,05,30,4.90
2018,10,21,05,31,4.80
2018,10,21,05,32,4.80
2018,10,21,05,33,4.80
2018,10,21,05,34,4.80
2018,10,21,05,35,4.70
2018,10,21,05,36,4.70
2018,10,21,05,37,4.70
2018,10,21,05,38,4.70
2018,10,21,05,39,4.70
2018,10,21,05,40,4.70
2018,10,21,05,41,4.70
2018,10,21,05,42,4.70
2018,10,21,05,43,4.70
2018,10,21,05,44,4.70
2018,10,21,05,45,4.70
2018,10,21,05,46,4.70
2018,10,21,05,47,4.70
2018,10,21,05,48,4.70
2018,10,21,05,49,4.70
2018,10,21,05,50,4.70
2018,10,21,05,51,4.70
2018,10,21,05,52,4.70
2018,10,21,05,53,4.70
2018,10,21,05,54,4.70
2018,10,21,05,55,4.70
2018,10,21,05,56,4.70
2018,10,21,05,57,4.70
2018,10,21,05,58,4.70
2018,10,21,05,59,4.70
2018,10,21,06,00,4.70
2018,10,21,06,01,4.60
2018,10,21,06,02,4.60
2018,10,21,06,03,4.60
2018,10,21,06,04,4.60
2018,10,21,06,05,4.50
2018,10,21,06,06,4.50
2018,10,21,06,07,4.40
2018,10,21,06,08,4.40
2018,10,21,06,09,4.40
2018,10,21,06,10,4.30
2018,10,21,06,11,4.30
2018,10,21,06,12,4.30
2018,10,21,06,13,4.30
2018,10,21,06,14,4.20
2018,10,21,06,15,4.20
2018,10,21,06,16,4.20
2018,10,21,06,17,4.20
2018,10,21,06,18,4.10
2018,10,21,06,19,4.10
2018,10,21,06,20,4.10
2018,10,21,06,21,4.10
2018,10,21,06,22,4.10
2018,10,21,06,23,4.10
2018,10,21,06,24,4.10
2018,10,21,06,25,4.00
2018,10,21,06,26,4.00
2018,10,21,06,27,4.00
2018,10,21,06,28,4.00
2018,10,21,06,29,4.00
2018,10,21,06,30,4.00
2018,10,21,06,31,4.00
2018,10,21,06,32,4.00
2018,10,21,06,33,4.10
2018,10,21,06,34,4.10
2018,10,21,06,35,4.10
2018,10,21,06,36,4.10
2018,10,21,06,37,4.20
2018,10,21,06,38,4.20
2018,10,21,06,39,4.20
2018,10,21,06,40,4.20
2018,10,21,06,41,4.20
2018,10,21,06,42,4.20
2018,10,21,06,43,4.20
2018,10,21,06,44,4.20
2018,10,21,06,45,4.10
2018,10,21,06,46,4.10
2018,10,21,06,47,4.10
2018,10,21,06,48,4.10
2018,10,21,06,49,4.00
2018,10,21,06,50,4.00
2018,10,21,06,51,4.00
2018,10,21,06,52,4.00
2018,10,21,06,53,4.00
2018,10,21,06,54,4.00
2018,10,21,06,55,3.90
2018,10,21,06,56,3.90
2018,10,21,06,57,3.90
2018,10,21,06,58,3.90
2018,10,21,06,59,3.90
2018,10,21,07,00,3.90
2018,10,21,07,01,3.80
2018,10,21,07,02,3.80
2018,10,21,07,03,3.80
2018,10,21,07,04,3.80
2018,10,21,07,05,3.80
2018,10,21,07,06,3.90
2018,10,21,07,07,3.90
2018,10,21,07,08,4.00
2018,10,21,07,09,4.00
2018,10,21,07,10,4.10
2018,10,21,07,11,4.10
2018,10,21,07,12,4.10
2018,10,21,07,13,4.10
2018,10,21,07,14,4.20
2018,10,21,07,15,4.20
2018,10,21,07,16,4.10
2018,10,21,07,17,4.10
2018,10,21,07,18,4.10
2018,10,21,07,19,4.10
2018,10,21,07,20,4.10
2018,10,21,07,21,4.10
2018,10,21,07,22,4.10
2018,10,21,07,23,4.20
2018,10,21,07,24,4.20
2018,10,21,07,25,4.10
2018,10,21,07,26,4.10
2018,10,21,07,27,4.10
2018,10,21,07,28,4.10
2018,10,21,07,29,4.10
2018,10,21,07,30,4.10
2018,10,21,07,31,4.10
2018,10,21,07,32,4.10
2018,10,21,07,33,4.10
2018,10,21,07,34,4.10
2018,10,21,07,35,4.10
2018,10,21,07,36,4.10
2018,10,21,07,37,4.10
2018,10,21,07,38,4.10
2018,10,21,07,39,4.10
2018,10,21,07,40,4.10
2018,10,21,07,41,4.00
2018,10,21,07,42,4.00
2018,10,21,07,43,4.00
2018,10,21,07,44,4.00
2018,10,21,07,45,4.00
2018,10,21,07,46,3.90
2018,10,21,07,47,3.90
2018,10,21,07,48,3.90
2018,10,21,07,49,3.90
2018,10,21,07,50,3.90
2018,10,21,07,51,3.90
2018,10,21,07,52,3.90
2018,10,21,07,53,4.00
2018,10,21,07,54,4.00
2018,10,21,07,55,4.00
2018,10,21,07,56,4.00
2018,10,21,07,57,4.00
2018,10,21,07,58,4.00
2018,10,21,07,59,4.00
2018,10,21,08,00,4.10
2018,10,21,08,01,4.10
2018,10,21,08,02,4.10
2018,10,21,08,03,4.10
2018,10,21,08,04,4.10
2018,10,21,08,05,4.10
2018,10,21,08,06,4.20
2018,10,21,08,07,4.20
2018,10,21,08,08,4.20
2018,10,21,08,09,4.20
2018,10,21,08,10,4.20
2018,10,21,08,11,4.20
2018,10,21,08,12,4.20
2018,10,21,08,13,4.20
2018,10,21,08,14,4.20
2018,10,21,08,15,4.20
2018,10,21,08,16,4.30
2018,10,21,08,17,4.30
2018,10,21,08,18,4.30
2018,10,21,08,19,4.30
2018,10,21,08,20,4.30
2018,10,21,08,21,4.30
2018,10,21,08,22,4.40
2018,10,21,08,23,4.40
2018,10,21,08,24,4.50
2018,10,21,08,25,4.60
2018,10,21,08,26,4.60
2018,10,21,08,27,4.70
2018,10,21,08,28,4.70
2018,10,21,08,29,4.80
2018,10,21,08,30,4.90
2018,10,21,08,31,4.90
2018,10,21,08,32,4.90
2018,10,21,08,33,5.00
2018,10,21,08,34,5.00
2018,10,21,08,35,5.00
2018,10,21,08,36,5.00
2018,10,21,08,37,4.90
2018,10,21,08,38,4.90
2018,10,21,08,39,4.90
2018,10,21,08,40,4.90
2018,10,21,08,41,4.90
2018,10,21,08,42,4.90
2018,10,21,08,43,4.90
2018,10,21,08,44,4.90
2018,10,21,08,45,5.00
2018,10,21,08,46,5.00
2018,10,21,08,47,5.00
2018,10,21,08,48,5.10
2018,10,21,08,49,5.10
2018,10,21,08,50,5.20
2018,10,21,08,51,5.30
2018,10,21,08,52,5.40
2018,10,21,08,53,5.50
2018,10,21,08,54,5.60
2018,10,21,08,55,5.70
2018,10,21,08,56,5.80
2018,10,21,08,57,6.00
2018,10,21,08,58,6.10
2018,10,21,08,59,6.10
2018,10,21,09,00,6.20
2018,10,21,09,01,6.30
2018,10,21,09,02,6.40
2018,10,21,09,03,6.50
2018,10,21,09,04,6.70
2018,10,21,09,05,6.80
2018,10,21,09,06,6.90
2018,10,21,09,07,7.10
2018,10,21,09,08,7.20
2018,10,21,09,09,7.30
2018,10,21,09,10,7.30
2018,10,21,09,11,7.40
2018,10,21,09,12,7.40
2018,10,21,09,13,7.40
2018,10,21,09,14,7.40
2018,10,21,09,15,7.40
2018,10,21,09,16,7.40
2018,10,21,09,17,7.40
2018,10,21,09,18,7.40
2018,10,21,09,19,7.40
2018,10,21,09,20,7.40
2018,10,21,09,21,7.40
2018,10,21,09,22,7.50
2018,10,21,09,23,7.50
2018,10,21,09,24,7.50
2018,10,21,09,25,7.50
2018,10,21,09,26,7.50
2018,10,21,09,27,7.50
2018,10,21,09,28,7.50
2018,10,21,09,29,7.60
2018,10,21,09,30,7.60
2018,10,21,09,31,7.70
2018,10,21,09,32,7.70
2018,10,21,09,33,7.80
2018,10,21,09,34,7.90
2018,10,21,09,35,7.90
2018,10,21,09,36,8.00
2018,10,21,09,37,8.10
2018,10,21,09,38,8.10
2018,10,21,09,39,8.20
2018,10,21,09,40,8.30
2018,10,21,09,41,8.40
2018,10,21,09,42,8.50
2018,10,21,09,43,8.60
2018,10,21,09,44,8.80
2018,10,21,09,45,8.90
2018,10,21,09,46,9.00
2018,10,21,09,47,9.00
2018,10,21,09,48,9.10
2018,10,21,09,49,9.30
2018,10,21,09,50,9.40
2018,10,21,09,51,9.60
2018,10,21,09,52,9.70
2018,10,21,09,53,9.90
2018,10,21,09,54,10.00
2018,10,21,09,55,10.10
2018,10,21,09,56,10.30
2018,10,21,09,57,10.40
2018,10,21,09,58,10.50
2018,10,21,09,59,10.60
2018,10,21,10,00,10.70
2018,10,21,10,01,10.80
2018,10,21,10,02,11.00
2018,10,21,10,03,11.10
2018,10,21,10,04,11.20
2018,10,21,10,05,11.30
2018,10,21,10,06,11.30
2018,10,21,10,07,11.30
2018,10,21,10,08,11.40
2018,10,21,10,09,11.40
2018,10,21,10,10,11.50
2018,10,21,10,11,11.60
2018,10,21,10,12,11.60
2018,10,21,10,13,11.70
2018,10,21,10,14,11.80
2018,10,21,10,15,11.80
2018,10,21,10,16,11.90
2018,10,21,10,17,11.90
2018,10,21,10,18,12.00
2018,10,21,10,19,12.00
2018,10,21,10,20,12.10
2018,10,21,10,21,12.10
2018,10,21,10,22,12.20
2018,10,21,10,23,12.20
2018,10,21,10,24,12.30
2018,10,21,10,25,12.40
2018,10,21,10,26,12.50
2018,10,21,10,27,12.60
2018,10,21,10,28,12.60
2018,10,21,10,29,12.70
2018,10,21,10,30,12.70
2018,10,21,10,31,12.70
2018,10,21,10,32,12.80
2018,10,21,10,33,12.80
2018,10,21,10,34,12.90
2018,10,21,10,35,13.00
2018,10,21,10,36,13.00
2018,10,21,10,37,13.00
2018,10,21,10,38,13.10
2018,10,21,10,39,13.10
2018,10,21,10,40,13.20
2018,10,21,10,41,13.30
2018,10,21,10,42,13.30
2018,10,21,10,43,13.40
2018,10,21,10,44,13.40
2018,10,21,10,45,13.50
2018,10,21,10,46,13.60
2018,10,21,10,47,13.70
2018,10,21,10,48,13.70
2018,10,21,10,49,13.70
2018,10,21,10,50,13.80
2018,10,21,10,51,13.80
2018,10,21,10,52,13.80
2018,10,21,10,53,13.80
2018,10,21,10,54,13.80
2018,10,21,10,55,13.90
2018,10,21,10,56,13.90
2018,10,21,10,57,13.90
2018,10,21,10,58,13.90
2018,10,21,10,59,13.90
2018,10,21,11,00,14.00
2018,10,21,11,01,14.10
2018,10,21,11,02,14.10
2018,10,21,11,03,14.10
2018,10,21,11,04,14.20
2018,10,21,11,05,14.20
2018,10,21,11,06,14.30
2018,10,21,11,07,14.30
2018,10,21,11,08,14.30
2018,10,21,11,09,14.30
2018,10,21,11,10,14.40
2018,10,21,11,11,14.40
2018,10,21,11,12,14.50
2018,10,21,11,13,14.60
2018,10,21,11,14,14.60
2018,10,21,11,15,14.70
2018,10,21,11,16,14.70
2018,10,21,11,17,14.70
2018,10,21,11,18,14.80
2018,10,21,11,19,14.80
2018,10,21,11,20,14.90
2018,10,21,11,21,14.90
2018,10,21,11,22,15.00
2018,10,21,11,23,15.00
2018,10,21,11,24,15.10
2018,10,21,11,25,15.10
2018,10,21,11,26,15.20
2018,10,21,11,27,15.20
2018,10,21,11,28,15.20
2018,10,21,11,29,15.30
2018,10,21,11,30,15.30
2018,10,21,11,31,15.30
2018,10,21,11,32,15.30
2018,10,21,11,33,15.30
2018,10,21,11,34,15.30
2018,10,21,11,35,15.30
2018,10,21,11,36,15.30
2018,10,21,11,37,15.20
2018,10,21,11,38,15.20
2018,10,21,11,39,15.10
2018,10,21,11,40,15.10
2018,10,21,11,41,15.10
2018,10,21,11,42,15.20
2018,10,21,11,43,15.20
2018,10,21,11,44,15.20
2018,10,21,11,45,15.30
2018,10,21,11,46,15.30
2018,10,21,11,47,15.40
2018,10,21,11,48,15.40
2018,10,21,11,49,15.40
2018,10,21,11,50,15.40
2018,10,21,11,51,15.50
2018,10,21,11,52,15.50
2018,10,21,11,53,15.50
2018,10,21,11,54,15.50
2018,10,21,11,55,15.60
2018,10,21,11,56,15.60
2018,10,21,11,57,15.60
2018,10,21,11,58,15.60
2018,10,21,11,59,15.70
2018,10,21,12,00,15.70
2018,10,21,12,01,15.70
2018,10,21,12,02,15.70
2018,10,21,12,03,15.70
2018,10,21,12,04,15.70
2018,10,21,12,05,15.70
2018,10,21,12,06,15.60
2018,10,21,12,07,15.60
2018,10,21,12,08,15.60
2018,10,21,12,09,15.60
2018,10,21,12,10,15.60
2018,10,21,12,11,15.60
2018,10,21,12,12,15.60
2018,10,21,12,13,15.60
2018,10,21,12,14,15.60
2018,10,21,12,15,15.60
2018,10,21,12,16,15.70
2018,10,21,12,17,15.70
2018,10,21,12,18,15.70
2018,10,21,12,19,15.80
2018,10,21,12,20,15.80
2018,10,21,12,21,15.80
2018,10,21,12,22,15.90
2018,10,21,12,23,15.90
2018,10,21,12,24,15.90
2018,10,21,12,25,15.90
2018,10,21,12,26,15.80
2018,10,21,12,27,15.80
2018,10,21,12,28,15.80
2018,10,21,12,29,15.80
2018,10,21,12,30,15.80
2018,10,21,12,31,15.80
2018,10,21,12,32,15.90
2018,10,21,12,33,15.90
2018,10,21,12,34,15.90
2018,10,21,12,35,15.90
2018,10,21,12,36,15.90
2018,10,21,12,37,15.90
2018,10,21,12,38,15.90
2018,10,21,12,39,15.90
2018,10,21,12,40,16.00
2018,10,21,12,41,16.00
2018,10,21,12,42,16.10
2018,10,21,12,43,16.10
2018,10,21,12,44,16.10
2018,10,21,12,45,16.20
2018,10,21,12,46,16.20
2018,10,21,12,47,16.20
2018,10,21,12,48,16.20
2018,10,21,12,49,16.30
2018,10,21,12,50,16.30
2018,10,21,12,51,16.30
2018,10,21,12,52,16.30
2018,10,21,12,53,16.40
2018,10,21,12,54,16.40
2018,10,21,12,55,16.40
2018,10,21,12,56,16.40
2018,10,21,12,57,16.40
2018,10,21,12,58,16.40
2018,10,21,12,59,16.30
2018,10,21,13,00,16.30
2018,10,21,13,01,16.30
2018,10,21,13,02,16.30
2018,10,21,13,03,16.20
2018,10,21,13,04,16.20
2018,10,21,13,05,16.20
2018,10,21,13,06,16.20
2018,10,21,13,07,16.20
2018,10,21,13,08,16.20
2018,10,21,13,09,16.20
2018,10,21,13,10,16.30
2018,10,21,13,11,16.30
2018,10,21,13,12,16.30
2018,10,21,13,13,16.40
2018,10,21,13,14,16.40
2018,10,21,13,15,16.40
2018,10,21,13,16,16.50
2018,10,21,13,17,16.50
2018,10,21,13,18,16.40
2018,10,21,13,19,16.40
2018,10,21,13,20,16.40
2018,10,21,13,21,16.40
2018,10,21,13,22,16.40
2018,10,21,13,23,16.40
2018,10,21,13,24,16.30
2018,10,21,13,25,16.40
2018,10,21,13,26,16.40
2018,10,21,13,27,16.40
2018,10,21,13,28,16.40
2018,10,21,13,29,16.40
2018,10,21,13,30,16.40
2018,10,21,13,31,16.40
2018,10,21,13,32,16.40
2018,10,21,13,33,16.40
2018,10,21,13,34,16.50
2018,10,21,13,35,16.50
2018,10,21,13,36,16.60
2018,10,21,13,37,16.60
2018,10,21,13,38,16.60
2018,10,21,13,39,16.60
2018,10,21,13,40,16.60
2018,10,21,13,41,16.60
2018,10,21,13,42,16.60
2018,10,21,13,43,16.60
2018,10,21,13,44,16.60
2018,10,21,13,45,16.70
2018,10,21,13,46,16.70
2018,10,21,13,47,16.70
2018,10,21,13,48,16.60
2018,10,21,13,49,16.60
2018,10,21,13,50,16.60
2018,10,21,13,51,16.60
2018,10,21,13,52,16.60
2018,10,21,13,53,16.60
2018,10,21,13,54,16.60
2018,10,21,13,55,16.70
2018,10,21,13,56,16.70
2018,10,21,13,57,16.70
2018,10,21,13,58,16.70
2018,10,21,13,59,16.70
2018,10,21,14,00,16.70
2018,10,21,14,01,16.70
2018,10,21,14,02,16.70
2018,10,21,14,03,16.70
2018,10,21,14,04,16.70
2018,10,21,14,05,16.70
2018,10,21,14,06,16.70
2018,10,21,14,07,16.60
2018,10,21,14,08,16.60
2018,10,21,14,09,16.60
2018,10,21,14,10,16.50
2018,10,21,14,11,16.50
2018,10,21,14,12,16.50
2018,10,21,14,13,16.50
2018,10,21,14,14,16.50
2018,10,21,14,15,16.50
2018,10,21,14,16,16.50
2018,10,21,14,17,16.50
2018,10,21,14,18,16.60
2018,10,21,14,19,16.60
2018,10,21,14,20,16.60
2018,10,21,14,21,16.60
2018,10,21,14,22,16.60
2018,10,21,14,23,16.60
2018,10,21,14,24,16.60
2018,10,21,14,25,16.70
2018,10,21,14,26,16.70
2018,10,21,14,27,16.70
2018,10,21,14,28,16.70
2018,10,21,14,29,16.60
2018,10,21,14,30,16.60
2018,10,21,14,31,16.60
2018,10,21,14,32,16.60
2018,10,21,14,33,16.50
2018,10,21,14,34,16.50
2018,10,21,14,35,16.40
2018,10,21,14,36,16.40
2018,10,21,14,37,16.40
2018,10,21,14,38,16.40
2018,10,21,14,39,16.40
2018,10,21,14,40,16.40
2018,10,21,14,41,16.40
2018,10,21,14,42,16.40
2018,10,21,14,43,16.40
2018,10,21,14,44,16.40
2018,10,21,14,45,16.30
2018,10,21,14,46,16.30
2018,10,21,14,47,16.30
2018,10,21,14,48,16.40
2018,10,21,14,49,16.50
2018,10,21,14,50,16.60
2018,10,21,14,51,16.70
2018,10,21,14,52,16.80
2018,10,21,14,53,16.90
2018,10,21,14,54,17.00
2018,10,21,14,55,17.10
2018,10,21,14,56,17.20
2018,10,21,14,57,17.20
2018,10,21,14,58,17.10
2018,10,21,14,59,17.00
2018,10,21,15,00,16.90
2018,10,21,15,01,16.80
2018,10,21,15,02,16.70
2018,10,21,15,03,16.70
2018,10,21,15,04,16.60
2018,10,21,15,05,16.50
2018,10,21,15,06,16.50
2018,10,21,15,07,16.50
2018,10,21,15,08,16.50
2018,10,21,15,09,16.40
2018,10,21,15,10,16.40
2018,10,21,15,11,16.30
2018,10,21,15,12,16.30
2018,10,21,15,13,16.10
2018,10,21,15,14,16.10
2018,10,21,15,15,16.00
2018,10,21,15,16,16.00
2018,10,21,15,17,15.90
2018,10,21,15,18,15.90
2018,10,21,15,19,15.90
2018,10,21,15,20,15.80
2018,10,21,15,21,15.70
2018,10,21,15,22,15.70
2018,10,21,15,23,15.60
2018,10,21,15,24,15.60
2018,10,21,15,25,15.50
2018,10,21,15,26,15.50
2018,10,21,15,27,15.40
2018,10,21,15,28,15.40
2018,10,21,15,29,15.40
2018,10,21,15,30,15.30
2018,10,21,15,31,15.30
2018,10,21,15,32,15.30
2018,10,21,15,33,15.20
2018,10,21,15,34,15.20
2018,10,21,15,35,15.10
2018,10,21,15,36,15.00
2018,10,21,15,37,14.90
2018,10,21,15,38,14.80
2018,10,21,15,39,14.80
2018,10,21,15,40,14.70
2018,10,21,15,41,14.70
2018,10,21,15,42,14.70
2018,10,21,15,43,14.70
2018,10,21,15,44,14.60
2018,10,21,15,45,14.60
2018,10,21,15,46,14.60
2018,10,21,15,47,14.60
2018,10,21,15,48,14.60
2018,10,21,15,49,14.60
2018,10,21,15,50,14.60
2018,10,21,15,51,14.70
2018,10,21,15,52,14.70
2018,10,21,15,53,14.70
2018,10,21,15,54,14.80
2018,10,21,15,55,14.80
2018,10,21,15,56,14.80
2018,10,21,15,57,14.90
2018,10,21,15,58,14.90
2018,10,21,15,59,14.90
2018,10,21,16,00,14.90
2018,10,21,16,01,14.90
2018,10,21,16,02,14.90
2018,10,21,16,03,14.90
2018,10,21,16,04,14.90
2018,10,21,16,05,14.90
2018,10,21,16,06,15.00
2018,10,21,16,07,15.00
2018,10,21,16,08,15.00
2018,10,21,16,09,15.00
2018,10,21,16,10,14.90
2018,10,21,16,11,14.90
2018,10,21,16,12,14.80
2018,10,21,16,13,14.80
2018,10,21,16,14,14.70
2018,10,21,16,15,14.70
2018,10,21,16,16,14.60
2018,10,21,16,17,14.60
2018,10,21,16,18,14.60
2018,10,21,16,19,14.60
2018,10,21,16,20,14.60
2018,10,21,16,21,14.70
2018,10,21,16,22,14.70
2018,10,21,16,23,14.80
2018,10,21,16,24,14.80
2018,10,21,16,25,14.80
2018,10,21,16,26,14.80
2018,10,21,16,27,14.80
2018,10,21,16,28,14.80
2018,10,21,16,29,14.80
2018,10,21,16,30,14.70
2018,10,21,16,31,14.70
2018,10,21,16,32,14.70
2018,10,21,16,33,14.70
2018,10,21,16,34,14.70
2018,10,21,16,35,14.60
2018,10,21,16,36,14.60
2018,10,21,16,37,14.50
2018,10,21,16,38,14.50
2018,10,21,16,39,14.50
2018,10,21,16,40,14.40
2018,10,21,16,41,14.40
2018,10,21,16,42,14.40
2018,10,21,16,43,14.40
2018,10,21,16,44,14.40
2018,10,21,16,45,14.40
2018,10,21,16,46,14.50
2018,10,21,16,47,14.50
2018,10,21,16,48,14.50
2018,10,21,16,49,14.60
2018,10,21,16,50,14.60
2018,10,21,16,51,14.60
2018,10,21,16,52,14.50
2018,10,21,16,53,14.50
2018,10,21,16,54,14.50
2018,10,21,16,55,14.50
2018,10,21,16,56,14.40
2018,10,21,16,57,14.40
2018,10,21,16,58,14.40
2018,10,21,16,59,14.40
2018,10,21,17,00,14.40
2018,10,21,17,01,14.40
2018,10,21,17,02,14.40
2018,10,21,17,03,14.40
2018,10,21,17,04,14.40
2018,10,21,17,05,14.50
2018,10,21,17,06,14.50
2018,10,21,17,07,14.50
2018,10,21,17,08,14.60
2018,10,21,17,09,14.60
2018,10,21,17,10,14.60
2018,10,21,17,11,14.60
2018,10,21,17,12,14.60
2018,10,21,17,13,14.60
2018,10,21,17,14,14.60
2018,10,21,17,15,14.60
2018,10,21,17,16,14.50
2018,10,21,17,17,14.40
2018,10,21,17,18,14.40
2018,10,21,17,19,14.30
2018,10,21,17,20,14.20
2018,10,21,17,21,14.20
2018,10,21,17,22,14.20
2018,10,21,17,23,14.10
2018,10,21,17,24,14.10
2018,10,21,17,25,14.10
2018,10,21,17,26,14.00
2018,10,21,17,27,14.00
2018,10,21,17,28,13.90
2018,10,21,17,29,13.90
2018,10,21,17,30,13.90
2018,10,21,17,31,13.90
2018,10,21,17,32,13.90
2018,10,21,17,33,13.90
2018,10,21,17,34,13.80
2018,10,21,17,35,13.80
2018,10,21,17,36,13.80
2018,10,21,17,37,13.80
2018,10,21,17,38,13.80
2018,10,21,17,39,13.80
2018,10,21,17,40,13.80
2018,10,21,17,41,13.80
2018,10,21,17,42,13.70
2018,10,21,17,43,13.70
2018,10,21,17,44,13.70
2018,10,21,17,45,13.70